Location: Lac Echo
(45.9375°N, 75.4580°W)
Time: 09:44:23
(UTC-04:00)

Amateur Radio Satellites - All Passes

Search period start: 27 May 2017 09:14
Search period end: 28 May 2017 09:14
Location: Lac Echo, 45.9375°N, 75.4580°W

Satellite Date Start Highest point End Downlink Frequencies (MHz)
Time Altitude Azimuth
CUTE-I 27 May 09:15:07 09:18:24 17° 303° (WNW) 09:21:42 437.470
AAUSAT CUBESAT 2 27 May 09:23:50 09:28:00 87° 105° (ESE) 09:32:08 437.432
AO-73 27 May 09:28:10 09:32:36 48° 99° (E) 09:37:01 145.935
PRISM 27 May 09:32:24 09:36:22 46° 71° (ENE) 09:40:19 437.425
M-CUBED/EXP-1 PRIME 27 May 09:33:53 09:36:30 16° 261° (W) 09:39:02 437.505
UNISAT 6 27 May 09:36:53 09:40:53 39° 70° (ENE) 09:44:59 437.425
DELFI C3 27 May 09:38:27 09:40:19 13° 90° (E) 09:42:09 145.870
ZACube-1 27 May 09:42:29 09:47:03 75° 101° (ESE) 09:51:38 437.345
CUBEBUG 2 27 May 09:58:23 10:02:24 31° 292° (WNW) 10:06:29 437.445
SEEDS 27 May 10:02:28 10:05:33 20° 296° (WNW) 10:08:37 437.485
NO-84 27 May 10:06:42 10:11:00 58° 329° (NNW) 10:15:09 435.350 FM
UWE-3 27 May 10:07:07 10:11:22 39° 290° (WNW) 10:15:41 435.000/436.395/437.385
Oscar 11 27 May 10:37:02 10:41:09 42° 290° (WNW) 10:45:14 .
TIGRISAT 27 May 10:41:24 10:45:32 47° 261° (W) 10:49:46 435.000
FO-29 27 May 10:42:45 10:47:46 52° 260° (W) 10:53:01 435.910
HO-68 27 May 10:43:11 10:48:24 22° 308° (NW) 10:53:36 435.675
AIST 2D 27 May 10:43:25 10:46:15 23° 68° (ENE) 10:49:07 435.315
NANOSAT C BR1 27 May 10:43:47 10:46:06 15° 61° (ENE) 10:48:26 145.865
POLYITAN 1 27 May 10:48:26 10:51:15 18° 63° (ENE) 10:54:05 437.675
RS-15 27 May 10:53:15 11:05:37 75° 50° (NE) 11:17:21 29.354- 29.394
DUCHIFAT 1 27 May 10:53:43 10:56:21 17° 62° (ENE) 10:59:01 145.980
YUBILEINY 27 May 10:56:13 11:02:59 23° 60° (ENE) 11:09:43 435.215
QB50P2 27 May 10:56:34 10:59:52 23° 65° (ENE) 11:03:11 145.880/145.840
AAUSAT CUBESAT 2 27 May 11:01:53 11:02:47 11° 301° (WNW) 11:03:41 437.432
EO-88 27 May 11:04:10 11:07:53 90° 56° (NE) 11:11:34 145.990 - 145.960
AO-73 27 May 11:05:08 11:08:30 21° 296° (WNW) 11:11:52 145.935
PRISM 27 May 11:09:09 11:11:53 17° 268° (W) 11:14:37 437.425
DELFI C3 27 May 11:11:34 11:15:27 55° 287° (WNW) 11:19:16 145.870
UNISAT 6 27 May 11:14:30 11:17:46 21° 268° (W) 11:21:07 437.425
ZACube-1 27 May 11:20:18 11:22:45 15° 300° (WNW) 11:25:13 437.345
EO-79 27 May 11:32:34 11:36:34 47° 72° (ENE) 11:40:38 145.935-145.965
AO-85 27 May 11:37:23 11:39:31 14° 33° (NNE) 11:41:41 145.980
LO-87 27 May 11:45:05 11:48:22 35° 98° (E) 11:51:40 145.935 - 145.965
NO-84 27 May 11:45:43 11:49:15 25° 349° (N) 11:52:37 435.350 FM
AIST 2D 27 May 12:16:27 12:19:23 24° 265° (W) 12:22:21 435.315
BEESAT 3 27 May 12:17:07 12:18:57 13° 31° (NNE) 12:20:47 437.485
NANOSAT C BR1 27 May 12:17:12 12:21:20 62° 259° (W) 12:25:31 145.865
Gurwin Techsat 1B 27 May 12:20:24 12:23:07 14° 55° (NE) 12:25:50 435.225
O/OREOS (USA 219) 27 May 12:20:58 12:23:34 15° 47° (NE) 12:26:08 437.305
POLYITAN 1 27 May 12:22:37 12:26:40 49° 260° (W) 12:30:47 437.675
DUCHIFAT 1 27 May 12:27:33 12:31:37 53° 260° (W) 12:35:44 145.980
QB50P2 27 May 12:31:35 12:35:28 36° 263° (W) 12:39:24 145.880/145.840
Oscar 19 27 May 12:34:23 12:38:43 27° 63° (ENE) 12:43:03 437.125/150
ESTCUBE 1 27 May 12:34:44 12:39:15 72° 102° (ESE) 12:43:44 437.505/2401.250
BUGSAT 1 27 May 12:42:29 12:46:28 71° 74° (ENE) 12:50:29 437.445
YUBILEINY 27 May 12:52:09 13:01:02 88° 266° (W) 13:09:54 435.215
50 SAT 27 May 12:54:14 12:55:55 13° 92° (E) 12:57:34 437.505
RS-15 27 May 13:06:36 13:17:08 37° 254° (WSW) 13:27:18 29.354- 29.394
EO-79 27 May 13:09:52 13:12:37 17° 269° (W) 13:15:23 145.935-145.965
SPROUT 27 May 13:15:00 13:19:12 52° 100° (E) 13:23:22 437.525
AO-85 27 May 13:16:31 13:20:33 77° 53° (NE) 13:24:45 145.980
LO-87 27 May 13:19:12 13:21:34 17° 295° (WNW) 13:23:56 145.935 - 145.965
AO-7 27 May 13:21:39 13:27:15 21° 45° (NE) 13:32:51 .
NO-84 27 May 13:24:26 13:27:49 24° 10° (N) 13:31:01 435.350 FM
VELOX 1 27 May 13:26:59 13:31:22 66° 102° (ESE) 13:35:43 145.980
BEESAT 2 27 May 13:35:28 13:38:40 22° 39° (NE) 13:41:50 435.950
ITAMSAT 1 27 May 13:41:07 13:42:39 11° 53° (NE) 13:44:11 435.822/435.867
UKube-1 27 May 13:50:39 13:54:26 29° 96° (E) 13:58:11 .
BEESAT 3 27 May 13:53:20 13:57:21 63° 51° (NE) 14:01:18 437.485
Gurwin Techsat 1B 27 May 13:56:57 14:02:16 84° 74° (ENE) 14:07:37 435.225
O/OREOS (USA 219) 27 May 13:59:04 14:03:37 83° 247° (WSW) 14:08:06 437.305
DX 1 27 May 13:59:49 14:04:04 52° 101° (E) 14:08:17 434.975-435.025
Oscar 19 27 May 14:12:51 14:17:49 45° 261° (W) 14:22:48 437.125/150
ESTCUBE 1 27 May 14:13:01 14:15:29 15° 300° (WNW) 14:17:57 437.505/2401.250
BUGSAT 1 27 May 14:21:31 14:22:19 10° 272° (W) 14:23:07 437.445
50 SAT 27 May 14:25:46 14:28:59 40° 288° (WNW) 14:32:10 437.505
ITUPSAT 1 27 May 14:48:45 14:50:43 12° 88° (E) 14:52:39 437.325
YUBILEINY 27 May 14:50:43 14:56:33 20° 284° (WNW) 15:02:23 435.215
SPROUT 27 May 14:51:52 14:54:43 18° 297° (WNW) 14:57:34 437.525
AO-85 27 May 14:58:49 15:00:25 12° 249° (WSW) 15:02:03 145.980
NO-84 27 May 15:02:06 15:06:01 64° 32° (NNE) 15:09:33 435.350 FM
VELOX 1 27 May 15:04:49 15:07:18 15° 300° (WNW) 15:09:48 145.980
AO-7 27 May 15:10:27 15:18:41 73° 66° (ENE) 15:26:58 .
BEESAT 2 27 May 15:12:44 15:16:43 55° 239° (WSW) 15:20:40 435.950
ITAMSAT 1 27 May 15:16:02 15:21:09 68° 72° (ENE) 15:26:19 435.822/435.867
BEESAT 27 May 15:20:05 15:24:03 25° 94° (E) 15:28:00 436.000
UKube-1 27 May 15:26:41 15:30:25 29° 294° (WNW) 15:34:07 .
BEESAT 3 27 May 15:32:12 15:34:27 15° 249° (WSW) 15:36:41 437.485
DX 1 27 May 15:36:57 15:39:52 18° 298° (WNW) 15:42:47 434.975-435.025
Gurwin Techsat 1B 27 May 15:40:12 15:42:53 14° 272° (W) 15:45:35 435.225
ITUPSAT 1 27 May 16:24:18 16:29:09 83° 286° (WNW) 16:33:58 437.325
MOZHAYETS 4 27 May 16:30:43 16:35:24 73° 103° (ESE) 16:40:01
NO-84 27 May 16:40:28 16:43:10 19° 232° (SW) 16:45:42 435.350 FM
BEESAT 27 May 16:57:28 17:01:57 41° 292° (WNW) 17:06:25 436.000
ITAMSAT 1 27 May 16:57:49 17:01:08 17° 270° (W) 17:04:26 435.822/435.867
DOVE 4 27 May 17:02:58 17:06:43 26° 67° (ENE) 17:10:20 437.250
AO-7 27 May 17:05:21 17:12:08 28° 267° (W) 17:19:00 .
XW-2D 27 May 17:12:24 17:14:51 17° 64° (ENE) 17:17:19 145.860 - 145.880
KKS-1 27 May 17:16:53 17:20:54 32° 97° (E) 17:24:54 437.445
CUTE-I 27 May 17:19:23 17:23:41 26° 62° (ENE) 17:28:00 437.470
CUBESAT XI-V 27 May 17:19:28 17:23:56 43° 98° (E) 17:28:20 437.345
XW-2B 27 May 17:20:02 17:22:46 19° 65° (ENE) 17:25:32 145.730 - 145.750
NUDT-PHONESAT 27 May 17:27:50 17:30:25 18° 65° (ENE) 17:33:00 437.300
XW-2F 27 May 17:31:26 17:34:32 24° 67° (ENE) 17:37:40 145.980 - 146.000
XW-2C 27 May 17:33:11 17:36:23 26° 68° (ENE) 17:39:38 145.795 - 145.815
KAITUO 1B 27 May 17:37:19 17:40:21 23° 67° (ENE) 17:43:24 145.475/437.950
HO-68 27 May 17:40:21 17:45:17 20° 51° (NE) 17:50:13 435.675
STARS 27 May 17:45:00 17:48:48 28° 96° (E) 17:52:35 437.465
ITUPSAT 1 27 May 18:04:16 18:06:12 12° 304° (NW) 18:08:09 437.325
MOZHAYETS 4 27 May 18:09:18 18:11:58 15° 300° (WNW) 18:14:38
LilacSat-2 27 May 18:11:47 18:15:38 77° 75° (ENE) 18:19:31 437.200
CUTE 1.7 + AOD 2 27 May 18:33:31 18:36:46 21° 65° (ENE) 18:40:01 437.475
DOVE 4 27 May 18:40:12 18:44:20 33° 263° (W) 18:48:17 437.250
XW-2D 27 May 18:45:03 18:48:42 43° 261° (W) 18:52:24 145.860 - 145.880
XW-2B 27 May 18:53:10 18:56:43 36° 263° (W) 19:00:19 145.730 - 145.750
KKS-1 27 May 18:53:35 18:57:22 28° 294° (WNW) 19:01:07 437.445
CUBESAT XI-V 27 May 18:57:23 19:01:02 23° 296° (WNW) 19:04:40 437.345
CUTE-I 27 May 18:58:19 19:03:26 49° 260° (W) 19:08:36 437.470
NUDT-PHONESAT 27 May 19:00:35 19:04:03 37° 262° (W) 19:07:34 437.300
XW-2F 27 May 19:05:17 19:08:34 28° 264° (W) 19:11:55 145.980 - 146.000
XW-2C 27 May 19:07:19 19:10:32 25° 265° (W) 19:13:47 145.795 - 145.815
STRAND 1 27 May 19:09:36 19:11:57 13° 88° (E) 19:14:18 437.568
KAITUO 1B 27 May 19:10:56 19:14:14 28° 264° (W) 19:17:34 145.475/437.950
XW-2A 27 May 19:13:13 19:16:23 40° 72° (ENE) 19:19:36 145.665 - 145.685
SEEDS 27 May 19:19:44 19:23:42 40° 70° (ENE) 19:27:42 437.485
STARS 27 May 19:21:15 19:25:07 31° 293° (WNW) 19:29:00 437.465
CUBEBUG 2 27 May 19:22:21 19:26:04 32° 68° (ENE) 19:29:52 437.445
HO-68 27 May 19:24:50 19:32:00 84° 73° (ENE) 19:39:16 435.675
PCSat 27 May 19:26:58 19:32:17 61° 117° (ESE) 19:37:39 145.827
UWE-3 27 May 19:30:36 19:34:02 25° 66° (ENE) 19:37:34 435.000/436.395/437.385
Oscar 11 27 May 19:58:39 20:02:01 22° 64° (ENE) 20:05:22 .
CUTE 1.7 + AOD 2 27 May 20:08:17 20:12:20 41° 262° (W) 20:16:25 437.475
AAUSAT CUBESAT 2 27 May 20:15:41 20:19:52 77° 75° (ENE) 20:24:04 437.432
Tancredo 1 27 May 20:22:13 20:25:05 37° 144° (SE) 20:27:59 437.200
AO-73 27 May 20:25:47 20:29:51 48° 71° (ENE) 20:34:03 145.935
DELFI C3 27 May 20:26:57 20:28:27 12° 61° (ENE) 20:29:56 145.870
ZACube-1 27 May 20:40:20 20:44:33 76° 75° (ENE) 20:48:55 437.345
STRAND 1 27 May 20:46:37 20:51:48 86° 284° (WNW) 20:56:58 437.568
XW-2A 27 May 20:47:48 20:49:22 13° 269° (W) 20:50:56 145.665 - 145.685
SEEDS 27 May 20:56:20 20:59:33 21° 268° (W) 21:02:46 437.485
CUBEBUG 2 27 May 20:59:17 21:02:44 25° 266° (W) 21:06:16 437.445
ISS 27 May 21:04:50 21:08:05 60° 147° (SSE) 21:11:21 437.550
UWE-3 27 May 21:06:33 21:10:21 33° 264° (W) 21:14:17 435.000/436.395/437.385
M-CUBED/EXP-1 PRIME 27 May 21:09:01 21:11:22 18° 100° (E) 21:13:42 437.505
PCSat 27 May 21:11:29 21:16:05 27° 318° (NW) 21:20:43 145.827
HO-68 27 May 21:15:34 21:20:35 20° 271° (W) 21:25:38 435.675
Oscar 11 27 May 21:33:48 21:37:54 41° 262° (W) 21:42:02 .
EO-88 27 May 21:43:54 21:47:28 53° 73° (ENE) 21:51:04 145.990 - 145.960
FO-29 27 May 21:47:56 21:52:39 20° 91° (E) 21:57:41 435.910
AAUSAT CUBESAT 2 27 May 21:54:59 21:55:51 11° 273° (W) 21:56:42 437.432
SO-50 27 May 21:55:57 21:59:42 25° 115° (ESE) 22:03:27 436.795
Tancredo 1 27 May 21:57:53 22:00:50 42° 342° (NNW) 22:03:48 437.200
DELFI C3 27 May 21:58:40 22:02:39 73° 257° (WSW) 22:06:39 145.870
ESTCUBE 1 27 May 22:03:03 22:04:38 12° 57° (ENE) 22:06:13 437.505/2401.250
AO-73 27 May 22:03:32 22:06:23 17° 270° (W) 22:09:18 145.935
ZACube-1 27 May 22:20:11 22:21:25 11° 273° (W) 22:22:40 437.345
LO-87 27 May 22:23:49 22:26:34 21° 67° (ENE) 22:29:20 145.935 - 145.965
STRAND 1 27 May 22:27:39 22:30:12 14° 304° (NW) 22:32:46 437.568
TIGRISAT 27 May 22:30:05 22:34:08 30° 95° (E) 22:38:13 435.000
ISS 27 May 22:41:37 22:44:43 36° 346° (NNW) 22:47:49 437.550
M-CUBED/EXP-1 PRIME 27 May 22:43:04 22:45:55 27° 297° (WNW) 22:48:42 437.505
PRISM 27 May 22:46:12 22:50:11 52° 100° (E) 22:54:09 437.425
VELOX 1 27 May 22:54:23 22:54:54 10° 56° (ENE) 22:55:25 145.980
UNISAT 6 27 May 23:01:51 23:06:27 66° 101° (ESE) 23:11:06 437.425
EO-88 27 May 23:20:04 23:21:28 12° 270° (W) 23:22:52 145.990 - 145.960
FO-29 27 May 23:31:46 23:38:12 81° 287° (WNW) 23:45:26 435.910
Tancredo 1 27 May 23:34:24 23:37:04 27° 2° (N) 23:39:46 437.200
SO-50 27 May 23:35:33 23:39:56 46° 313° (NW) 23:44:20 436.795
ESTCUBE 1 27 May 23:36:10 23:40:43 87° 74° (ENE) 23:45:17 437.505/2401.250
AIST 2D 27 May 23:38:57 23:41:39 20° 93° (E) 23:44:21 435.315
LO-87 27 May 23:56:51 23:59:53 26° 264° (W) 00:02:57 145.935 - 145.965
NANOSAT C BR1 27 May 23:59:46 00:02:38 17° 92° (E) 00:05:30 145.865
YUBILEINY 28 May 00:02:16 00:08:33 23° 77° (ENE) 00:14:50 435.215
POLYITAN 1 28 May 00:05:14 00:08:35 22° 93° (E) 00:11:56 437.675
TIGRISAT 28 May 00:06:41 00:10:48 33° 292° (WNW) 00:14:57 435.000
DUCHIFAT 1 28 May 00:09:31 00:12:39 20° 93° (E) 00:15:47 145.980
SPROUT 28 May 00:10:21 00:14:28 53° 72° (ENE) 00:18:36 437.525
QB50P2 28 May 00:13:42 00:17:27 29° 96° (E) 00:21:10 145.880/145.840
ISS 28 May 00:18:47 00:21:46 30° 7° (N) 00:24:43 437.550
PRISM 28 May 00:22:34 00:25:05 16° 298° (WNW) 00:27:34 437.425
VELOX 1 28 May 00:26:10 00:30:35 79° 73° (ENE) 00:35:00 145.980
UNISAT 6 28 May 00:39:48 00:42:41 17° 299° (WNW) 00:45:35 437.425
UKube-1 28 May 00:47:11 00:51:04 34° 68° (ENE) 00:54:59 .
EO-79 28 May 00:50:01 00:54:16 64° 101° (E) 00:58:30 145.935-145.965
DX 1 28 May 00:57:17 01:01:35 62° 72° (ENE) 01:05:53 434.975-435.025
50 SAT 28 May 00:59:43 01:03:10 79° 259° (W) 01:06:37 437.505
Tancredo 1 28 May 01:10:14 01:13:16 51° 21° (NNE) 01:16:16 437.200
AIST 2D 28 May 01:11:46 01:14:53 28° 291° (WNW) 01:17:59 435.315
ESTCUBE 1 28 May 01:17:09 01:18:08 11° 273° (W) 01:19:08 437.505/2401.250
FO-29 28 May 01:18:31 01:22:30 18° 304° (WNW) 01:26:46 435.910
SO-50 28 May 01:19:38 01:21:32 12° 335° (NNW) 01:23:26 436.795
RS-15 28 May 01:19:58 01:30:24 36° 105° (ESE) 01:41:02 29.354- 29.394
NANOSAT C BR1 28 May 01:34:31 01:38:36 47° 289° (WNW) 01:42:41 145.865
POLYITAN 1 28 May 01:40:31 01:44:29 38° 291° (WNW) 01:48:27 437.675
DUCHIFAT 1 28 May 01:44:30 01:48:30 41° 290° (WNW) 01:52:29 145.980
SPROUT 28 May 01:48:08 01:50:42 16° 269° (W) 01:53:16 437.525
QB50P2 28 May 01:49:29 01:53:11 29° 293° (WNW) 01:56:53 145.880/145.840
ISS 28 May 01:55:18 01:58:36 75° 26° (NNE) 02:01:53 437.550
YUBILEINY 28 May 01:55:30 02:04:14 84° 278° (W) 02:13:06 435.215
BUGSAT 1 28 May 01:56:38 02:00:47 87° 100° (E) 02:04:59 437.445
ITUPSAT 1 28 May 01:57:08 02:00:36 21° 61° (ENE) 02:04:07 437.325
MOZHAYETS 4 28 May 02:00:52 02:02:45 12° 58° (ENE) 02:04:38
VELOX 1 28 May 02:06:13 02:07:34 11° 272° (W) 02:08:57 145.980
Gurwin Techsat 1B 28 May 02:11:06 02:15:37 27° 94° (E) 02:20:05 435.225
Oscar 19 28 May 02:21:35 02:26:39 53° 100° (E) 02:31:40 437.125/150
UKube-1 28 May 02:23:36 02:27:10 25° 265° (W) 02:30:43 .
EO-79 28 May 02:27:10 02:29:32 15° 299° (WNW) 02:31:55 145.935-145.965
BEESAT 28 May 02:28:32 02:32:56 38° 68° (ENE) 02:37:21 436.000
PCSat 28 May 02:29:43 02:33:36 19° 36° (NE) 02:37:28 145.827
DX 1 28 May 02:35:52 02:38:10 14° 270° (W) 02:40:28 434.975-435.025
Tancredo 1 28 May 02:46:13 02:48:53 27° 220° (SW) 02:51:32 437.200
AO-7 28 May 03:10:39 03:16:15 19° 89° (E) 03:21:49 .
ITAMSAT 1 28 May 03:27:12 03:30:56 20° 91° (E) 03:34:41 435.822/435.867
RS-15 28 May 03:29:40 03:41:54 78° 309° (NW) 03:54:22 29.354- 29.394
ISS 28 May 03:32:23 03:34:47 19° 224° (SW) 03:37:09 437.550
ITUPSAT 1 28 May 03:33:23 03:38:03 54° 259° (W) 03:42:46 437.325
BUGSAT 1 28 May 03:34:29 03:35:31 11° 301° (WNW) 03:36:32 437.445
MOZHAYETS 4 28 May 03:34:34 03:39:11 89° 70° (ENE) 03:43:51
AO-85 28 May 03:35:54 03:37:27 12° 110° (ESE) 03:38:58 145.980
Gurwin Techsat 1B 28 May 03:50:41 03:55:43 44° 292° (WNW) 04:00:44 435.225
YUBILEINY 28 May 03:56:23 04:02:33 21° 303° (WNW) 04:08:47 435.215
Oscar 19 28 May 04:01:37 04:05:37 23° 299° (WNW) 04:09:37 437.125/150
BEESAT 28 May 04:06:48 04:10:48 26° 265° (W) 04:14:50 436.000
PCSat 28 May 04:12:22 04:17:51 82° 56° (NE) 04:23:17 145.827
O/OREOS (USA 219) 28 May 04:13:23 04:17:57 73° 112° (ESE) 04:22:33 437.305
KKS-1 28 May 04:17:00 04:21:09 41° 69° (ENE) 04:25:19 437.445
CUBESAT XI-V 28 May 04:24:40 04:29:16 56° 72° (ENE) 04:33:54 437.345
STARS 28 May 04:43:43 04:47:38 34° 68° (ENE) 04:51:35 437.465
SO-50 28 May 04:44:54 04:46:50 12° 25° (NNE) 04:48:47 436.795
AO-7 28 May 05:01:45 05:10:11 85° 109° (ESE) 05:18:34 .
ITAMSAT 1 28 May 05:05:40 05:10:48 60° 289° (WNW) 05:15:56 435.822/435.867
BEESAT 2 28 May 05:07:58 05:09:52 13° 110° (ESE) 05:11:48 435.950
AO-85 28 May 05:13:11 05:17:18 76° 307° (NW) 05:21:17 145.980
MOZHAYETS 4 28 May 05:16:11 05:17:01 10° 274° (W) 05:17:51
BEESAT 3 28 May 05:22:13 05:26:01 47° 120° (ESE) 05:29:54 437.485
RS-15 28 May 05:45:36 05:56:44 37° 339° (NNW) 06:07:54 29.354- 29.394
KKS-1 28 May 05:54:27 05:57:52 22° 266° (W) 06:01:18 437.445
O/OREOS (USA 219) 28 May 05:54:54 05:57:54 17° 312° (NW) 06:00:54 437.305
PCSat 28 May 05:57:20 06:00:33 16° 256° (WSW) 06:03:44 145.827
CUBESAT XI-V 28 May 06:03:50 06:07:00 18° 270° (W) 06:10:10 437.345
XW-2D 28 May 06:15:55 06:18:23 16° 91° (E) 06:20:51 145.860 - 145.880
STARS 28 May 06:20:25 06:24:02 25° 265° (W) 06:27:40 437.465
XW-2B 28 May 06:23:38 06:26:27 19° 92° (E) 06:29:14 145.730 - 145.750
SO-50 28 May 06:24:01 06:28:24 47° 47° (NE) 06:32:46 436.795
STRAND 1 28 May 06:27:05 06:31:12 25° 63° (ENE) 06:35:20 437.568
NUDT-PHONESAT 28 May 06:29:06 06:31:38 17° 92° (E) 06:34:09 437.300
XW-2F 28 May 06:34:45 06:37:56 24° 94° (E) 06:41:05 145.980 - 146.000
DOVE 4 28 May 06:35:34 06:39:36 48° 100° (E) 06:43:45 437.250
XW-2C 28 May 06:37:00 06:40:20 27° 95° (E) 06:43:37 145.795 - 145.815
KAITUO 1B 28 May 06:39:34 06:42:38 23° 94° (E) 06:45:40 145.475/437.950
BEESAT 2 28 May 06:43:07 06:47:05 69° 308° (NW) 06:51:08 435.950
HO-68 28 May 06:52:25 06:55:38 13° 85° (E) 06:58:51 435.675
AO-7 28 May 06:55:27 07:02:04 27° 310° (NW) 07:08:41 .
AO-85 28 May 06:56:18 06:58:21 13° 327° (NNW) 07:00:22 145.980
BEESAT 3 28 May 07:00:35 07:03:50 23° 320° (NW) 07:07:07 437.485
CUTE-I 28 May 07:12:29 07:17:44 55° 100° (E) 07:22:58 437.470
LilacSat-2 28 May 07:16:40 07:20:35 83° 103° (ESE) 07:24:27 437.200
XW-2D 28 May 07:49:07 07:52:47 42° 288° (WNW) 07:56:24 145.860 - 145.880
CUTE 1.7 + AOD 2 28 May 07:50:41 07:54:23 28° 95° (E) 07:58:02 437.475
M-CUBED/EXP-1 PRIME 28 May 07:55:58 07:59:54 45° 67° (ENE) 08:03:35 437.505
XW-2B 28 May 07:57:12 08:00:45 35° 290° (WNW) 08:04:16 145.730 - 145.750
NO-84 28 May 07:57:52 08:01:27 25° 130° (SE) 08:04:59 435.350 FM
NUDT-PHONESAT 28 May 08:02:10 08:05:42 38° 289° (WNW) 08:09:12 437.300
RS-15 28 May 08:02:54 08:13:46 33° 13° (NNE) 08:24:22 29.354- 29.394
SO-50 28 May 08:04:58 08:08:37 24° 246° (WSW) 08:12:15 436.795
XW-2A 28 May 08:05:11 08:08:17 30° 97° (E) 08:11:23 145.665 - 145.685
STRAND 1 28 May 08:05:13 08:10:07 47° 261° (W) 08:15:04 437.568
XW-2F 28 May 08:08:44 08:12:03 28° 291° (WNW) 08:15:19 145.980 - 146.000
XW-2C 28 May 08:11:13 08:14:26 25° 293° (WNW) 08:17:37 145.795 - 145.815
KAITUO 1B 28 May 08:13:19 08:16:39 29° 291° (WNW) 08:19:57 145.475/437.950
DOVE 4 28 May 08:14:14 08:17:00 17° 296° (WNW) 08:19:48 437.250
BEESAT 2 28 May 08:23:33 08:25:36 13° 328° (NNW) 08:27:40 435.950
ZACube-1 28 May 08:27:28 08:29:46 14° 88° (E) 08:32:04 437.345
SEEDS 28 May 08:36:16 08:40:26 55° 100° (E) 08:44:32 437.485
HO-68 28 May 08:37:23 08:44:37 72° 104° (ESE) 08:51:47 435.675
CUBEBUG 2 28 May 08:46:02 08:50:33 55° 100° (E) 08:55:10 437.445
UWE-3 28 May 08:52:44 08:57:06 40° 97° (E) 09:01:28 435.000/436.395/437.385
CUTE-I 28 May 08:53:14 08:57:26 24° 299° (WNW) 09:01:37 437.470
